Location: Dal�� Lhota
(48.7500°N, 14.0167°E)
Time: 08:38:21
(UTC+00:00)

Explorer 7 - Pass Details

Date: 07 August 2021
Orbit: 484 x 676 km, 50.3° (Epoch: 21 September)

Event Time Altitude Azimuth Distance (km) Brightness Sun altitude
Rises 05:41:46 0° 283° (WNW) 2,581 9.7 17.4°
Reaches altitude 10° 05:43:54 10° 284° (WNW) 1,716 8.8 17.8°
Maximum altitude 05:47:47 83° 11° (NNE) 530 7.1 18.4°
Drops below altitude 10° 05:51:54 10° 102° (ESE) 1,808 11.3 19.1°
Sets 05:54:12 0° 103° (ESE) 2,734 11.8 19.5°
